STARLINK-5930, 55928

Orbit data source: Space-Track

STARLINK-5930, 55928 is a payload satellite owned by SpaceX/Seattle (US) in LEO that was launched on Fri, 17 Mar 2023 UTC via an FALCON 9 launch vehicle from the Air Force Western Test Range (AFWTR). Payload-class satellites include a variety of spacecraft equipped with specific instruments for various scientific and technological missions. These include communications satellites like Starlink; space stations such as the ISS; scientific satellites like the Hubble; Earth observation satellites from companies like Planet Labs, Umbra, and HawkEye 360; GPS; miniature CubeSats for education and research; and military/defense satellites.

Loading next visibility...
Identifier
55928, 2023-037Q
Orbit
LEO
Country
Flag of USUS
Related business
Manufacturer
SpaceX/Seattle
Mission
Operational Commercial Communications
Bus & Motor
STARLINK, Unknown motor
Mass
305 kg wet, ~290 kg dry
Launch date (UTC)
2023-03-17 (3 years ago)
Launch vehicle
FALCON 9
Launch site
Air Force Western Test Range (AFWTR)
Object type
Payload
Rocket body
Debris
Shape & HBR
Box + 1 Pan, 10.1 m
Radar Cross Section
11.087 m², Large (>1 m²)

Expand to show TLE details & history
Last TLE update: 17 hours ago

TLE from 17 hours ago
0 STARLINK-5930
1 55928U 23037Q   25350.19110266  .00000721  00000-0  68190-4 0  9993
2 55928  69.9990 154.8330 0002945 271.3670  88.7152 14.98324321150984
Epoch: 2025-12-16T04:35Z
TLE epoch observation values (Epoch: 2025-12-16T04:35:11.269Z)
Latitude
-0.00001°
Longitude
0.95718°
Altitude
574.452 km
Speed
7.574 km/s
True Right ascension
10h 19m 19s
True Declination
0° 00' 00"
Sunlit
Object was in daylight at epoch
Visualization orbit readout
Latitude
Unknown
Longitude
Unknown
Altitude
Unknown
Speed
Unknown
Apparent Right ascension
Unknown
Apparent Declination
Unknown
Sunlit
N/A
Visualization observer readout
Local Sidereal Time
20:40:22
Azimuth
Unknown
Elevation
Unknown
Doppler factor
Unknown
Orbital elements
Apogee altitude
572.068 km
Perigee altitude
567.976 km
Semi-major axis
6,948.159 km
Eccentricity
0.00029
Inclination
69.999°
RAAN
154.833°
Arg. of periapsis
271.367°
True anomaly
88.74894°
Mean anomaly
88.7152°
Eccentric anomaly
88.73207°
Mean motion
3.74747 °/min
Orbital period
96.06 mins
BSTAR
0.00006819
Loading maneuver chart data...
Computing Atmospheric mass density...
Loading historical data...
Loading historical data...
Loading historical data...
Loading historical data...
Loading historical data...
Loading historical data...
Loading historical data...

Documentation

Showing up to 5 results
|